Regional Weather Roundup
Issued by NWS

Home | Current Version | Previous Version | Text Only | Print | Product List | Glossary On
Versions: 1 2 3 4 5 6 7 8 9 10 11 12 13 14 15 16 17 18 19 20 21 22 23 24 25 26 27 28 29 30 31 32 33 34 35 36 37 38 39 40 41 42 43 44 45 46 47 48 49 50
000
ASUS43 KDTX 010610
RWRMI
MICHIGAN HOURLY REGIONAL WEATHER ROUNDUP
NATIONAL WEATHER SERVICE DETROIT/PONTIAC MI
200 AM EDT SAT AUG 01 2015

NOTE: "FAIR" INDICATES FEW OR NO CLOUDS BELOW 12,000 FEET WITH NO
SIGNIFICANT WEATHER AND/OR OBSTRUCTION TO VISIBILITY.

MIZ047>049-052>055-059>063-066>070-074>076-081>083-010700-
SOUTHEAST LOWER MICHIGAN

CITY           SKY/WX    TMP DP  RH WIND       PRES   REMARKS
ADRIAN         CLEAR     62  53  72 W7        29.94S
6HR MIN TEMP:  62; 6HR MAX TEMP:  79;

ALMA           CLEAR     57  57  99 CALM      29.91S
ANN ARBOR      PTCLDY    62  53  72 W9        29.91S
BAD AXE        CLEAR     56  54  90 CALM      29.88S
6HR MIN TEMP:  56; 6HR MAX TEMP:  75;

CARO           CLEAR     60  56  88 W3        29.88S
DETROIT CITY   PTCLDY    70  54  56 W3        29.89S
6HR MIN TEMP:  70; 6HR MAX TEMP:  82;

DETROIT        PTCLDY    67  53  61 W7        29.91R
6HR MIN TEMP:  67; 6HR MAX TEMP:  81;

FLINT          PTCLDY    67  56  67 CALM      29.90S
6HR MIN TEMP:  66; 6HR MAX TEMP:  80; 6HR PCP: TRACE;

GROSSE ILE     CLEAR     68  54  60 NW6       29.90R
HILLSDALE      CLEAR     64  53  67 W5        29.95S
6HR MIN TEMP:  63; 6HR MAX TEMP:  77;

HOWELL         CLOUDY    63  54  72 W6        29.91S

CITY           SKY/WX    TMP DP  RH WIND       PRES   REMARKS
JACKSON        MOCLDY    61  53  75 W5        29.93S
6HR MIN TEMP:  60; 6HR MAX TEMP:  76;

LAMBERTVILLE   CLEAR     65  55  68 CALM      29.93S
6HR MIN TEMP:  65; 6HR MAX TEMP:  81;

LANSING        CLEAR     63  54  72 CALM      29.92S
6HR MIN TEMP:  63; 6HR MAX TEMP:  78;

LAPEER         FAIR      62  55  79 CALM      29.89F
MASON          MOCLDY    64  52  67 W6        29.92S
MONROE         CLEAR     61  55  82 W5        29.91S
MT. CLEMENS    CLOUDY    69  55  62 W5        29.87S
6HR MIN TEMP:  68; 6HR MAX TEMP:  81;

PONTIAC        MOCLDY    67  57  70 W7        29.90S
6HR MIN TEMP:  67; 6HR MAX TEMP:  79; 6HR PCP: TRACE;

PORT HOPE        N/A     68  58  70 NW10      29.85S
6HR MIN TEMP:  65; 6HR MAX TEMP:  74;

PORT HURON     PTCLDY    57  57 100 CALM      29.88S
TRI CITIES     CLEAR     64  55  72 W8        29.89S
6HR MIN TEMP:  64; 6HR MAX TEMP:  79; 6HR PCP: TRACE;

MIDLAND        FAIR      57  56  97 CALM      29.89S
6HR MIN TEMP:  57; 6HR MAX TEMP:  78; 6HR PCP:  0.02;

TROY           CLOUDY    71  56  58 W5        29.91S
SAGINAW HB     CLEAR     64  54  68 W7        29.88S
$$
MIZ043>046-050>051-056>058-064>065-071>073-077>080-010700-
SOUTHWEST LOWER MICHIGAN

CITY           SKY/WX    TMP DP  RH WIND       PRES   REMARKS
BATTLE CREEK   CLEAR     64  55  72 W7        29.95R
6HR MIN TEMP:  63; 6HR MAX TEMP:  78;

BENTON HARBOR  CLEAR     72  59  63 W10       29.95S
6HR MIN TEMP:  61; 6HR MAX TEMP:  75;

BIG RAPIDS     CLEAR     57  56  94 CALM      29.92S
6HR MIN TEMP:  57; 6HR MAX TEMP:  74; 6HR PCP:  0.04;

COLDWATER      CLEAR     59  53  80 SW5       29.95S
6HR MIN TEMP:  59; 6HR MAX TEMP:  76;

FREMONT        FAIR      61  58  91 CALM      29.92S
HOLLAND        CLEAR     70  61  73 W6        29.95R
6HR MIN TEMP:  66; 6HR MAX TEMP:  77;

GRAND RAPIDS   CLEAR     65  58  78 W6        29.93R
6HR MIN TEMP:  65; 6HR MAX TEMP:  78;

IONIA          FAIR      64  55  75 W3        29.92R
6HR MIN TEMP:  63; 6HR MAX TEMP:  77;

KALAMAZOO      CLEAR     66  56  70 W8        29.95S
6HR MIN TEMP:  63; 6HR MAX TEMP:  78;

LUDINGTON      CLEAR     69  60  74 NW5       29.92S
6HR MIN TEMP:  64; 6HR MAX TEMP:  76;

MARSHALL       CLEAR     61  54  77 W3        29.94S
MOUNT PLEASANT CLEAR     62  57  84 W5        29.89F
6HR MIN TEMP:  62; 6HR MAX TEMP:  79;

MUSKEGON       CLEAR     69  59  70 W5        29.93R
6HR MIN TEMP:  67; 6HR MAX TEMP:  76;

SOUTH HAVEN    CLEAR     71  60  67 NW6       29.95R
$$
MIZ016>042-010700-
NORTHERN LOWER MICHIGAN

CITY           SKY/WX    TMP DP  RH WIND       PRES   REMARKS
ALPENA         CLEAR     59  54  83 W3        29.86S
6HR MIN TEMP:  58; 6HR MAX TEMP:  65; 6HR PCP: TRACE;

BEAVER ISLAND  PTCLDY    55  54  96 CALM      29.86S FOG
6HR MIN TEMP:  53; 6HR MAX TEMP:  70;

BELLAIRE       CLEAR     55  53  94 CALM      29.88S
6HR MIN TEMP:  54; 6HR MAX TEMP:  73;

CADILLAC       CLEAR     57  54  90 W5        29.91S
CHARLEVOIX     CLEAR     59  58  96 SW3       29.89F
6HR MIN TEMP:  58; 6HR MAX TEMP:  69;

FRANKFORT      CLEAR     57  56  95 CALM      29.89S
GAYLORD        CLEAR     56  53  90 CALM      29.89S
6HR MIN TEMP:  56; 6HR MAX TEMP:  69;

GRAYLING       CLEAR     52  51  97 CALM      29.90S
6HR MIN TEMP:  51; 6HR MAX TEMP:  73;

HARBOR SPRINGS PTCLDY    58  55  88 CALM      29.86S
HOUGHTON LAKE  CLEAR     54  53  97 CALM      29.90F
6HR MIN TEMP:  54; 6HR MAX TEMP:  71;

MANISTEE       CLEAR     57  54  88 CALM      29.91S
OSCODA         CLEAR     58  54  86 W5        29.86S
PELLSTON       CLEAR     52  50  93 CALM      29.85F
6HR MIN TEMP:  51; 6HR MAX TEMP:  72;

ROGERS CITY    CLEAR     58  54  85 SW7       29.85F
TRAVERSE CITY  CLEAR     62  57  83 S3        29.86S
6HR MIN TEMP:  62; 6HR MAX TEMP:  77;

$$
MIZ007>008-015-010700-
EASTERN UPPER MICHIGAN

CITY           SKY/WX    TMP DP  RH WIND       PRES   REMARKS
KINROSS        PTCLDY    55  54  94 W6        29.82F
6HR MIN TEMP:  55; 6HR MAX TEMP:  66;

MACKINAC ISLAN CLEAR     64  54  71 W7        29.84S
NEWBERRY       CLEAR     57  53  86 W6        29.83S
6HR MIN TEMP:  56; 6HR MAX TEMP:  67;

S. S. MARIE    PTCLDY    54  52  93 W6        29.81F
6HR MIN TEMP:  54; 6HR MAX TEMP:  63;

MUNISING         N/A     63  52  67 W6        29.83F
6HR MIN TEMP:  59; 6HR MAX TEMP:  71;

$$
MIZ004>006-011>014-085-010700-
CENTRAL UPPER MICHIGAN

CITY           SKY/WX    TMP DP  RH WIND       PRES   REMARKS
MANISTIQUE     CLEAR     57  52  82 W3        29.84F
ESCANABA       CLEAR     57  52  82 W7        29.86F
6HR MIN TEMP:  57; 6HR MAX TEMP:  75;

MENOMINEE      MOCLDY    63  50  63 W5        29.89F
6HR MIN TEMP:  63; 6HR MAX TEMP:  75;

SAWYER-GWINN   CLEAR     58  51  77 W7        29.87S
6HR MIN TEMP:  58; 6HR MAX TEMP:  72;

$$
MIZ001>003-009>011-084-010700-
WESTERN UPPER MICHIGAN

CITY           SKY/WX    TMP DP  RH WIND       PRES   REMARKS
IRON MOUNTAIN  CLEAR     61  53  75 W8        29.89S
6HR MIN TEMP:  61; 6HR MAX TEMP:  71;

HOUGHTON       CLEAR     60  55  83 W12       29.85S
6HR MIN TEMP:  56; 6HR MAX TEMP:  67;

COPPER HARBOR    N/A     65  54  67 VRB6      29.80F
6HR MIN TEMP:  65; 6HR MAX TEMP:  71;

IRONWOOD       CLEAR     55  54  94 W5        29.90S
6HR MIN TEMP:  55; 6HR MAX TEMP:  66;

$$

ABBREVIATIONS USED IN REMARKS
   TC - TEMPERATURE IN CELSIUS
  WCI - WIND CHILL INDEX
   HX - HEAT INDEX
  VSB - VISIBILITY




USA.gov is the U.S. government's official web portal to all federal, state and local government web resources and services.